When you browse on this site, cookies collect data to enhance your experience and personalize the content and advertising you see.
Visit our Privacy Policy to learn more. By continuing to use the site, you agree to this use of cookies and data.
  • In United Kingdom
  • List of Countries
  • For 7 days
  • Water Temperature
  • Weather Map
  • Weather Widgets
  • user-avatar
    Login

    Hourly Weather Khorugh

    Today, 21 October, Monday

    Time Temperature Precipitation Wind Pressure Humidity
    00:00 -1°C° 0 mm 1 mps 479 mmHg 39%
    01:00 -1°C° 0 mm 1 mps 478 mmHg 39%
    02:00 -1°C° 0 mm 1 mps 478 mmHg 40%
    03:00 -1°C° 0 mm 1 mps 478 mmHg 41%
    04:00 -1°C° 0 mm 1 mps 478 mmHg 42%
    05:00 -4°C° 0 mm 2 mps 478 mmHg 44%
    06:00 -4°C° 0 mm 2 mps 478 mmHg 49%
    07:00 -4°C° 0 mm 2 mps 478 mmHg 54%
    08:00 -4°C° 0 mm 2 mps 478 mmHg 58%
    09:00 -4°C° 0.3 mm 2 mps 478 mmHg 64%
    10:00 -4°C° 0.3 mm 2 mps 477 mmHg 70%
    11:00 -4°C° 0.3 mm 2 mps 477 mmHg 76%
    12:00 -4°C° 0.3 mm 2 mps 478 mmHg 69%
    13:00 -3°C° 0.3 mm 2 mps 478 mmHg 62%
    14:00 -2°C° 0.3 mm 2 mps 478 mmHg 55%
    15:00 -2°C° 0.2 mm 2 mps 478 mmHg 54%
    16:00 -2°C° 0.2 mm 2 mps 478 mmHg 52%
    17:00 -2°C° 0.2 mm 2 mps 478 mmHg 50%
    18:00 -3°C° 0.1 mm 2 mps 478 mmHg 52%
    19:00 -3°C° 0.1 mm 2 mps 478 mmHg 54%
    20:00 -2°C° 0.1 mm 1 mps 478 mmHg 56%
    21:00 -2°C° 0 mm 1 mps 477 mmHg 56%
    22:00 -2°C° 0 mm 1 mps 477 mmHg 56%
    23:00 -2°C° 0 mm 1 mps 477 mmHg 56%

    Tomorrow, 22 October, Tuesday

    Time Temperature Precipitation Wind Pressure Humidity
    00:00 -3°C° 0 mm 1 mps 476 mmHg 60%
    01:00 -3°C° 0 mm 1 mps 476 mmHg 65%
    02:00 -4°C° 0 mm 1 mps 476 mmHg 69%
    03:00 -4°C° 0.3 mm 1 mps 475 mmHg 76%
    04:00 -4°C° 0.3 mm 1 mps 475 mmHg 83%
    05:00 -6°C° 0.3 mm 1 mps 474 mmHg 91%
    06:00 -6°C° 0.3 mm 1 mps 475 mmHg 91%
    07:00 -6°C° 0.3 mm 1 mps 475 mmHg 91%
    08:00 -6°C° 0.3 mm 1 mps 475 mmHg 92%
    09:00 -6°C° 0.3 mm 1 mps 475 mmHg 90%
    10:00 -4°C° 0.3 mm 1 mps 475 mmHg 89%
    11:00 -4°C° 0.3 mm 1 mps 475 mmHg 87%
    12:00 -5°C° 0.4 mm 2 mps 475 mmHg 87%
    13:00 -5°C° 0.4 mm 2 mps 475 mmHg 86%
    14:00 -5°C° 0.4 mm 2 mps 475 mmHg 85%
    15:00 -5°C° 0.4 mm 2 mps 475 mmHg 84%
    16:00 -5°C° 0.4 mm 2 mps 475 mmHg 83%
    17:00 -5°C° 0.4 mm 2 mps 475 mmHg 82%
    18:00 -6°C° 0.1 mm 2 mps 475 mmHg 83%
    19:00 -4°C° 0.1 mm 1 mps 475 mmHg 84%
    20:00 -6°C° 0.1 mm 1 mps 475 mmHg 85%
    21:00 -6°C° 0 mm 1 mps 474 mmHg 85%
    22:00 -7°C° 0 mm 1 mps 474 mmHg 86%
    23:00 -7°C° 0 mm 1 mps 473 mmHg 86%

    Day after tomorrow, 23 October, Wednesday

    Time Temperature Precipitation Wind Pressure Humidity
    00:00 -8°C° 0 mm 1 mps 473 mmHg 86%
    01:00 -8°C° 0 mm 0 mps 473 mmHg 86%
    02:00 -8°C° 0 mm 0 mps 473 mmHg 86%
    03:00 -8°C° 0 mm 0 mps 473 mmHg 86%
    04:00 -9°C° 0 mm 0 mps 473 mmHg 86%
    05:00 -9°C° 0 mm 0 mps 472 mmHg 86%
    06:00 -8°C° 0 mm 0 mps 473 mmHg 83%
    07:00 -8°C° 0 mm 0 mps 473 mmHg 81%
    08:00 -7°C° 0 mm 1 mps 474 mmHg 78%
    09:00 -7°C° 0 mm 1 mps 474 mmHg 73%
    10:00 -6°C° 0 mm 1 mps 474 mmHg 68%
    11:00 -4°C° 0 mm 1 mps 475 mmHg 63%
    12:00 -3°C° 0 mm 1 mps 475 mmHg 59%
    13:00 -2°C° 0 mm 1 mps 475 mmHg 56%
    14:00 -1°C° 0 mm 1 mps 476 mmHg 52%
    15:00 -2°C° 0 mm 1 mps 476 mmHg 53%
    16:00 -2°C° 0 mm 1 mps 475 mmHg 54%
    17:00 -2°C° 0 mm 1 mps 475 mmHg 55%
    18:00 -3°C° 0 mm 1 mps 475 mmHg 59%
    19:00 -4°C° 0 mm 1 mps 475 mmHg 62%
    20:00 -6°C° 0 mm 1 mps 475 mmHg 66%
    21:00 -6°C° 0 mm 1 mps 475 mmHg 68%
    22:00 -6°C° 0 mm 1 mps 475 mmHg 70%
    23:00 -7°C° 0 mm 1 mps 475 mmHg 72%

    24 October, Thursday

    Time Temperature Precipitation Wind Pressure Humidity
    00:00 -7°C° 0 mm 1 mps 475 mmHg 74%
    01:00 -7°C° 0 mm 1 mps 474 mmHg 75%
    02:00 -7°C° 0 mm 1 mps 474 mmHg 77%
    03:00 -8°C° 0 mm 1 mps 474 mmHg 78%
    04:00 -8°C° 0 mm 1 mps 474 mmHg 79%
    05:00 -8°C° 0 mm 1 mps 473 mmHg 80%
    06:00 -8°C° 0 mm 1 mps 474 mmHg 75%
    07:00 -7°C° 0 mm 1 mps 475 mmHg 71%
    08:00 -7°C° 0 mm 1 mps 475 mmHg 66%
    09:00 -6°C° 0 mm 1 mps 476 mmHg 59%
    10:00 -5°C° 0 mm 0 mps 476 mmHg 51%
    11:00 -4°C° 0 mm 0 mps 477 mmHg 44%
    12:00 -3°C° 0 mm 0 mps 477 mmHg 40%
    13:00 -2°C° 0 mm 0 mps 477 mmHg 35%
    14:00 -1°C° 0 mm 0 mps 478 mmHg 31%
    15:00 -1°C° 0 mm 1 mps 477 mmHg 33%
    16:00 -1°C° 0 mm 1 mps 477 mmHg 36%
    17:00 -2°C° 0 mm 1 mps 477 mmHg 38%
    18:00 -2°C° 0 mm 1 mps 477 mmHg 39%
    19:00 -3°C° 0 mm 1 mps 476 mmHg 41%
    20:00 -4°C° 0 mm 1 mps 476 mmHg 43%
    21:00 -4°C° 0 mm 1 mps 476 mmHg 44%
    22:00 -6°C° 0 mm 1 mps 476 mmHg 44%
    23:00 -6°C° 0 mm 1 mps 476 mmHg 45%

    25 October, Friday

    Time Temperature Precipitation Wind Pressure Humidity
    00:00 -6°C° 0 mm 1 mps 476 mmHg 46%
    01:00 -6°C° 0 mm 1 mps 475 mmHg 46%
    02:00 -7°C° 0 mm 1 mps 475 mmHg 46%
    03:00 -7°C° 0 mm 1 mps 475 mmHg 45%
    04:00 -7°C° 0 mm 1 mps 475 mmHg 45%
    05:00 -7°C° 0 mm 1 mps 475 mmHg 44%
    06:00 -7°C° 0 mm 1 mps 475 mmHg 42%
    07:00 -6°C° 0 mm 1 mps 476 mmHg 39%
    08:00 -6°C° 0 mm 1 mps 476 mmHg 36%
    09:00 -3°C° 0 mm 1 mps 477 mmHg 34%
    10:00 -2°C° 0 mm 1 mps 477 mmHg 31%
    11:00 -2°C° 0 mm 0 mps 478 mmHg 28%
    12:00 -2°C° 0 mm 0 mps 478 mmHg 26%
    13:00 -1°C° 0 mm 0 mps 478 mmHg 25%
    14:00 +1°C° 0 mm 1 mps 478 mmHg 23%
    15:00 0°C° 0 mm 1 mps 478 mmHg 26%
    16:00 0°C° 0 mm 1 mps 478 mmHg 29%
    17:00 -1°C° 0 mm 1 mps 477 mmHg 32%
    18:00 -2°C° 0 mm 1 mps 477 mmHg 33%
    19:00 -2°C° 0 mm 1 mps 477 mmHg 35%
    20:00 -3°C° 0 mm 1 mps 477 mmHg 37%
    21:00 -3°C° 0 mm 1 mps 477 mmHg 37%
    22:00 -4°C° 0 mm 1 mps 477 mmHg 38%
    23:00 -4°C° 0 mm 1 mps 476 mmHg 38%

    26 October, Saturday

    Time Temperature Precipitation Wind Pressure Humidity
    00:00 -4°C° 0 mm 1 mps 476 mmHg 38%
    01:00 -6°C° 0 mm 1 mps 476 mmHg 38%
    02:00 -6°C° 0 mm 1 mps 476 mmHg 38%
    03:00 -6°C° 0 mm 1 mps 475 mmHg 38%
    04:00 -6°C° 0 mm 1 mps 475 mmHg 38%
    05:00 -7°C° 0 mm 1 mps 475 mmHg 37%
    06:00 -6°C° 0 mm 1 mps 476 mmHg 36%
    07:00 -4°C° 0 mm 1 mps 477 mmHg 34%
    08:00 -3°C° 0 mm 1 mps 477 mmHg 32%
    09:00 -2°C° 0 mm 1 mps 478 mmHg 30%
    10:00 -1°C° 0 mm 1 mps 479 mmHg 28%
    11:00 -1°C° 0 mm 0 mps 479 mmHg 27%
    12:00 0°C° 0 mm 0 mps 479 mmHg 25%
    13:00 0°C° 0 mm 0 mps 479 mmHg 24%
    14:00 +1°C° 0 mm 0 mps 480 mmHg 23%
    15:00 +1°C° 0 mm 1 mps 479 mmHg 26%
    16:00 +1°C° 0 mm 1 mps 479 mmHg 29%
    17:00 0°C° 0 mm 1 mps 479 mmHg 32%
    18:00 0°C° 0 mm 1 mps 478 mmHg 33%
    19:00 -1°C° 0 mm 1 mps 478 mmHg 35%
    20:00 -2°C° 0 mm 1 mps 478 mmHg 36%
    21:00 -2°C° 0 mm 1 mps 478 mmHg 37%
    22:00 -2°C° 0 mm 1 mps 478 mmHg 37%
    23:00 -2°C° 0 mm 1 mps 478 mmHg 38%

    27 October, Sunday

    Time Temperature Precipitation Wind Pressure Humidity
    00:00 -3°C° 0 mm 1 mps 478 mmHg 38%
    01:00 -3°C° 0 mm 1 mps 477 mmHg 38%
    02:00 -3°C° 0 mm 1 mps 477 mmHg 38%
    03:00 -3°C° 0 mm 1 mps 477 mmHg 38%
    04:00 -4°C° 0 mm 1 mps 477 mmHg 38%
    05:00 -4°C° 0 mm 1 mps 477 mmHg 38%
    06:00 -4°C° 0 mm 1 mps 477 mmHg 36%
    07:00 -3°C° 0 mm 1 mps 478 mmHg 34%
    08:00 -3°C° 0 mm 1 mps 478 mmHg 32%
    09:00 -2°C° 0 mm 1 mps 478 mmHg 30%
    10:00 0°C° 0 mm 1 mps 479 mmHg 28%
    11:00 0°C° 0 mm 0 mps 479 mmHg 27%
    12:00 0°C° 0 mm 0 mps 480 mmHg 26%
    13:00 +1°C° 0 mm 0 mps 480 mmHg 26%
    14:00 +1°C° 0 mm 0 mps 480 mmHg 25%
    15:00 +2°C° 0 mm 1 mps 479 mmHg 28%
    16:00 +1°C° 0 mm 1 mps 479 mmHg 31%
    17:00 +1°C° 0 mm 1 mps 479 mmHg 34%
    18:00 0°C° 0 mm 1 mps 479 mmHg 37%
    19:00 -1°C° 0 mm 1 mps 478 mmHg 40%
    20:00 -2°C° 0 mm 1 mps 478 mmHg 43%
    21:00 -2°C° 0 mm 1 mps 478 mmHg 45%
    22:00 -2°C° 0 mm 1 mps 478 mmHg 46%
    23:00 -3°C° 0 mm 1 mps 478 mmHg 47%
    Show more